Stone Corral
DateTemperatureDew Point
05/02 - 07:15 PM80.2°49.4°
05/02 - 07:00 PM81.9°48.2°
05/02 - 06:45 PM83.8°48.9°
05/02 - 06:30 PM85.2°48.7°
05/02 - 06:15 PM86.5°47.8°
05/02 - 06:00 PM87.6°47.6°
05/02 - 05:45 PM88.5°46.5°
05/02 - 05:30 PM89.0°46.6°
05/02 - 05:15 PM89.6°45.8°
05/02 - 05:00 PM90.2°46.7°
05/02 - 04:45 PM89.5°47.5°
05/02 - 04:30 PM89.6°47.8°
05/02 - 04:15 PM90.5°46.4°
05/02 - 04:00 PM90.8°48.2°
05/02 - 03:45 PM90.5°47.8°
05/02 - 03:30 PM91.0°50.1°
05/02 - 03:15 PM90.6°47.2°
05/02 - 03:00 PM91.8°46.8°
05/02 - 02:45 PM91.9°47.5°
05/02 - 02:30 PM91.7°47.3°
05/02 - 02:15 PM92.0°46.9°
05/02 - 02:00 PM92.0°47.9°
05/02 - 01:45 PM90.7°48.0°
05/02 - 01:30 PM90.5°49.9°
05/02 - 01:15 PM91.3°51.9°
05/02 - 01:00 PM89.6°55.7°
05/02 - 12:45 PM89.7°57.0°
05/02 - 12:30 PM88.6°56.8°
05/02 - 12:15 PM87.4°56.9°
05/02 - 12:00 PM88.0°56.7°
05/02 - 11:45 AM87.8°57.0°
05/02 - 11:30 AM86.7°56.9°
05/02 - 11:15 AM84.5°56.4°
05/02 - 11:00 AM83.2°56.0°
05/02 - 10:45 AM82.4°56.1°
05/02 - 10:30 AM80.5°55.4°
05/02 - 10:15 AM78.5°55.6°
05/02 - 10:00 AM76.3°55.4°
05/02 - 09:45 AM75.1°55.5°
05/02 - 09:30 AM73.5°54.7°
05/02 - 09:15 AM71.9°55.9°
05/02 - 09:00 AM70.4°55.5°
05/02 - 08:45 AM68.7°55.9°
05/02 - 08:30 AM67.8°55.4°
05/02 - 08:15 AM66.4°55.8°
05/02 - 08:00 AM64.6°55.6°
05/02 - 07:45 AM62.9°55.0°
05/02 - 07:30 AM60.8°54.6°
05/02 - 07:15 AM59.4°53.8°
05/02 - 07:00 AM58.6°53.9°
05/02 - 06:45 AM57.7°53.8°
05/02 - 06:30 AM58.4°53.8°
05/02 - 06:15 AM60.4°54.0°
05/02 - 06:00 AM61.5°53.6°
05/02 - 05:45 AM59.1°53.8°
05/02 - 05:30 AM58.0°53.6°
05/02 - 05:15 AM57.8°53.6°
05/02 - 05:00 AM58.3°53.8°
05/02 - 04:45 AM59.3°54.1°
05/02 - 04:30 AM60.7°54.7°
05/02 - 04:15 AM62.2°54.6°
05/02 - 04:00 AM62.8°53.8°
05/02 - 03:45 AM64.3°55.4°
05/02 - 03:30 AM66.3°54.2°
05/02 - 03:15 AM66.3°53.9°
05/02 - 03:00 AM63.2°54.0°
05/02 - 02:45 AM61.8°54.6°
05/02 - 02:30 AM61.3°54.5°
05/02 - 02:15 AM60.4°54.9°
05/02 - 02:00 AM60.6°55.0°
05/02 - 01:45 AM61.5°55.6°
05/02 - 01:30 AM62.2°55.6°
05/02 - 01:15 AM62.3°55.3°
05/02 - 01:00 AM63.1°55.8°
05/02 - 12:45 AM63.1°55.1°
05/02 - 12:30 AM64.0°55.3°
05/02 - 12:15 AM65.2°55.4°
05/02 - 12:00 AM67.2°55.8°
05/01 - 11:45 PM68.2°55.0°
05/01 - 11:30 PM69.6°55.1°
05/01 - 11:15 PM70.4°54.6°
05/01 - 11:00 PM70.2°54.7°
05/01 - 10:45 PM70.3°54.6°
05/01 - 10:30 PM70.0°54.7°
05/01 - 10:15 PM68.1°55.6°
05/01 - 10:00 PM67.6°57.0°
05/01 - 09:45 PM67.1°56.1°
05/01 - 09:30 PM68.2°59.2°
05/01 - 09:15 PM69.1°56.9°
05/01 - 09:00 PM72.8°57.0°
05/01 - 08:45 PM72.0°54.9°
05/01 - 08:30 PM71.8°54.8°
05/01 - 08:15 PM72.3°54.6°
05/01 - 08:00 PM73.7°54.8°
05/01 - 07:45 PM75.9°55.3°
05/01 - 07:30 PM78.3°56.7°
05/01 - 07:15 PM80.4°55.8°
05/01 - 07:00 PM82.0°55.4°
05/01 - 06:45 PM83.5°55.1°
05/01 - 06:30 PM84.3°53.2°
05/01 - 06:15 PM85.2°53.5°
05/01 - 06:00 PM85.9°53.0°
05/01 - 05:45 PM86.8°53.5°
05/01 - 05:30 PM87.2°53.7°
05/01 - 05:15 PM87.8°53.9°
05/01 - 05:00 PM88.0°54.1°
05/01 - 04:45 PM88.1°54.0°
05/01 - 04:30 PM88.4°53.9°
05/01 - 04:15 PM88.5°53.7°
05/01 - 04:00 PM88.3°53.3°
05/01 - 03:45 PM88.7°54.2°
05/01 - 03:30 PM89.6°54.3°
05/01 - 03:15 PM89.7°54.7°
05/01 - 03:00 PM89.8°53.8°
05/01 - 02:45 PM90.6°53.8°
05/01 - 02:30 PM90.5°53.8°
05/01 - 02:15 PM89.7°53.4°
05/01 - 02:00 PM89.6°54.0°
05/01 - 01:45 PM90.5°55.1°
05/01 - 01:30 PM89.7°54.4°
05/01 - 01:15 PM89.2°55.2°
05/01 - 01:00 PM90.0°57.2°
05/01 - 12:45 PM89.1°57.4°
05/01 - 12:30 PM87.9°57.4°
05/01 - 12:15 PM87.0°58.4°
05/01 - 12:00 PM86.3°57.9°
05/01 - 11:45 AM85.6°57.9°
05/01 - 11:30 AM84.9°57.7°
05/01 - 11:15 AM83.9°57.8°
05/01 - 11:00 AM82.4°57.2°
05/01 - 10:45 AM80.8°57.4°
05/01 - 10:30 AM78.7°56.9°
05/01 - 10:15 AM76.8°55.7°
05/01 - 10:00 AM74.9°55.9°
05/01 - 09:45 AM72.9°56.0°
05/01 - 09:30 AM71.3°56.1°
05/01 - 09:15 AM69.8°55.6°
05/01 - 09:00 AM68.6°55.5°
05/01 - 08:45 AM67.2°55.4°
05/01 - 08:30 AM66.0°54.5°
05/01 - 08:15 AM65.2°55.0°
05/01 - 08:00 AM63.3°53.8°
05/01 - 07:45 AM61.0°53.8°
05/01 - 07:30 AM57.8°54.5°
05/01 - 07:15 AM55.0°53.2°
05/01 - 07:00 AM54.3°52.4°
05/01 - 06:45 AM54.2°51.9°
05/01 - 06:30 AM54.1°51.4°
05/01 - 06:15 AM54.8°51.3°
05/01 - 06:00 AM56.2°51.5°
05/01 - 05:45 AM58.3°51.9°
05/01 - 05:30 AM59.7°51.4°
05/01 - 05:15 AM59.5°51.0°
05/01 - 05:00 AM59.4°51.3°
05/01 - 04:45 AM59.8°51.3°
05/01 - 04:30 AM58.7°51.8°
05/01 - 04:15 AM57.2°52.5°
05/01 - 04:00 AM56.5°52.0°
05/01 - 03:45 AM57.2°52.0°
05/01 - 03:30 AM58.5°52.2°
05/01 - 03:15 AM59.2°52.2°
05/01 - 03:00 AM58.7°52.3°
05/01 - 02:45 AM57.8°52.3°
05/01 - 02:30 AM57.1°52.5°
05/01 - 02:15 AM57.3°52.9°
05/01 - 02:00 AM58.1°52.7°
05/01 - 01:45 AM58.9°52.7°
05/01 - 01:30 AM59.9°53.0°
05/01 - 01:15 AM61.3°53.0°
05/01 - 01:00 AM62.9°53.1°
05/01 - 12:45 AM63.5°52.3°
05/01 - 12:30 AM63.0°51.9°
05/01 - 12:15 AM61.6°52.6°
05/01 - 12:00 AM62.4°53.2°
04/30 - 11:45 PM63.9°52.2°
04/30 - 11:30 PM65.0°52.0°
04/30 - 11:15 PM66.0°51.9°
04/30 - 11:00 PM66.4°52.2°
04/30 - 10:45 PM66.8°52.1°
04/30 - 10:30 PM66.2°52.4°
04/30 - 10:15 PM66.6°52.3°
04/30 - 10:00 PM66.7°52.2°
04/30 - 09:45 PM66.6°52.5°
04/30 - 09:30 PM66.7°52.3°
04/30 - 09:15 PM68.7°52.7°
04/30 - 09:00 PM70.6°52.9°
04/30 - 08:45 PM70.6°51.9°
04/30 - 08:30 PM71.6°52.5°
04/30 - 08:15 PM73.3°52.3°
04/30 - 08:00 PM73.9°52.2°
04/30 - 07:45 PM74.3°52.5°